Location: *
(58.7167°N, 26.1833°E)
Time: 14:22:13
(UTC+00:00)

Cosmos 1892 Rocket - Pass Details

Date: 25 August 2019
Orbit: 607 x 632 km, 82.5° (Epoch: 22 September)

Event Time Altitude Azimuth Distance (km) Brightness Sun altitude
Rises 20:34:19 0° 347° (NNW) 2,935 8.6 -17.6°
Reaches altitude 10° 20:36:35 10° 350° (N) 2,026 7.3 -17.7°
Maximum altitude 20:41:03 65° 73° (ENE) 701 3.7 -18.0°
Enters shadow 20:42:41 37° 142° (SE) 986 4.1 -18.0°
